QPF
0.01 0.01 0.01 0.01 0.01 0.01 0.00 0.00 0.00 0.00 0.00 0.00 0.00 0.00 0.01 0.01 0.01 0.01 0.00 0.00 0.00 0.00 0.00 0.01 0.02 0.02 0.03 0.03 0.03 0.02 0.03 0.04 0.03 0.02 0.02 0.02 0.03 0.03 0.05 0.03 0.02 0.02 0.03 0.04 0.03 0.02 0.02 0.02 0.01
0.01 0.02 0.02 0.02 0.01 0.01 0.01 0.00 0.00 0.00 0.00 0.00 0.00 0.00 0.00 0.00 0.00 0.00 0.00 0.00 0.00 0.00 0.00 0.01 0.02 0.02 0.03 0.03 0.03 0.02 0.03 0.04 0.03 0.03 0.03 0.03 0.03 0.04 0.04 0.04 0.02 0.03 0.04 0.04 0.04 0.03 0.02 0.01 0.01
0.01 0.01 0.02 0.01 0.01 0.01 0.01 0.01 0.00 0.00 0.00 0.00 0.00 0.00 0.00 0.00 0.00 0.00 0.00 0.00 0.00 0.00 0.01 0.01 0.01 0.01 0.02 0.02 0.03 0.03 0.03 0.03 0.03 0.03 0.03 0.03 0.04 0.04 0.04 0.04 0.03 0.03 0.03 0.03 0.04 0.03 0.02 0.01 0.01
0.01 0.01 0.01 0.01 0.01 0.01 0.01 0.01 0.00 0.00 0.00 0.00 0.00 0.00 0.00 0.00 0.00 0.00 0.00 0.00 0.00 0.00 0.01 0.02 0.01 0.01 0.02 0.02 0.03 0.02 0.03 0.03 0.03 0.03 0.03 0.03 0.04 0.04 0.03 0.03 0.03 0.02 0.02 0.02 0.03 0.03 0.02 0.02 0.01
0.01 0.01 0.01 0.01 0.01 0.01 0.00 0.00 0.00 0.00 0.00 0.00 0.00 0.00 0.00 0.00 0.00 0.00 0.00 0.00 0.00 0.01 0.02 0.02 0.03 0.02 0.02 0.03 0.03 0.03 0.03 0.03 0.03 0.03 0.03 0.04 0.04 0.04 0.04 0.04 0.03 0.02 0.02 0.02 0.02 0.02 0.02 0.03 0.02
0.01 0.01 0.01 0.01 0.01 0.01 0.00 0.00 0.00 0.01 0.01 0.00 0.00 0.00 0.00 0.00 0.00 0.00 0.00 0.00 0.00 0.01 0.01 0.02 0.04 0.04 0.03 0.03 0.03 0.04 0.03 0.03 0.03 0.04 0.04 0.04 0.03 0.03 0.05 0.06 0.05 0.04 0.03 0.03 0.03 0.03 0.03 0.03 0.02
0.01 0.00 0.00 0.00 0.00 0.00 0.00 0.00 0.01 0.01 0.01 0.01 0.00 0.00 0.00 0.00 0.00 0.00 0.00 0.00 0.00 0.01 0.01 0.01 0.03 0.04 0.04 0.03 0.04 0.04 0.03 0.03 0.03 0.04 0.04 0.03 0.03 0.02 0.04 0.05 0.05 0.04 0.03 0.03 0.03 0.02 0.03 0.03 0.02
0.00 0.01 0.00 0.00 0.00 0.01 0.01 0.01 0.01 0.01 0.01 0.01 0.01 0.00 0.00 0.00 0.00 0.00 0.00 0.00 0.01 0.01 0.01 0.01 0.02 0.04 0.04 0.03 0.03 0.03 0.04 0.04 0.04 0.04 0.03 0.02 0.02 0.02 0.02 0.03 0.04 0.04 0.04 0.03 0.03 0.03 0.03 0.03 0.02
0.01 0.01 0.00 0.00 0.00 0.01 0.01 0.01 0.01 0.01 0.01 0.01 0.00 0.00 0.00 0.00 0.00 0.00 0.00 0.01 0.01 0.01 0.01 0.01 0.03 0.05 0.05 0.04 0.03 0.03 0.04 0.04 0.04 0.04 0.04 0.03 0.02 0.02 0.02 0.02 0.03 0.04 0.04 0.04 0.05 0.05 0.04 0.04 0.03
0.00 0.00 0.00 0.01 0.01 0.01 0.01 0.01 0.00 0.01 0.01 0.01 0.00 0.00 0.00 0.00 0.00 0.00 0.01 0.01 0.01 0.01 0.01 0.02 0.02 0.02 0.04 0.04 0.03 0.03 0.04 0.05 0.04 0.04 0.04 0.03 0.02 0.02 0.02 0.02 0.02 0.03 0.04 0.05 0.05 0.06 0.07 0.06 0.03
0.00 0.00 0.00 0.00 0.01 0.01 0.01 0.01 0.01 0.01 0.01 0.01 0.01 0.00 0.00 0.01 0.00 0.01 0.02 0.02 0.02 0.01 0.01 0.01 0.02 0.02 0.03 0.05 0.04 0.04 0.04 0.04 0.05 0.04 0.04 0.03 0.03 0.03 0.02 0.02 0.02 0.03 0.06 0.07 0.07 0.09 0.08 0.06 0.02
0.00 0.00 0.00 0.00 0.00 0.01 0.02 0.02 0.01 0.01 0.01 0.01 0.02 0.02 0.01 0.01 0.01 0.01 0.02 0.02 0.02 0.01 0.01 0.01 0.01 0.02 0.03 0.04 0.05 0.04 0.04 0.04 0.04 0.04 0.04 0.03 0.03 0.03 0.03 0.03 0.03 0.03 0.04 0.05 0.06 0.08 0.08 0.06 0.04
0.01 0.00 0.00 0.00 0.00 0.01 0.02 0.03 0.03 0.01 0.01 0.01 0.01 0.01 0.01 0.01 0.01 0.01 0.02 0.02 0.01 0.01 0.02 0.01 0.01 0.02 0.02 0.03 0.05 0.05 0.04 0.03 0.04 0.04 0.03 0.03 0.03 0.03 0.03 0.03 0.03 0.04 0.04 0.04 0.04 0.05 0.06 0.05 0.06
0.01 0.01 0.00 0.00 0.00 0.01 0.01 0.02 0.03 0.03 0.01 0.01 0.00 0.01 0.01 0.01 0.01 0.02 0.03 0.02 0.01 0.01 0.02 0.02 0.02 0.02 0.02 0.02 0.04 0.07 0.05 0.04 0.05 0.04 0.03 0.03 0.03 0.03 0.04 0.04 0.04 0.04 0.04 0.04 0.04 0.04 0.04 0.05 0.05
0.01 0.01 0.01 0.01 0.01 0.01 0.01 0.01 0.01 0.02 0.01 0.00 0.00 0.00 0.01 0.01 0.01 0.01 0.01 0.01 0.01 0.01 0.01 0.02 0.02 0.01 0.01 0.01 0.02 0.05 0.06 0.05 0.05 0.04 0.03 0.03 0.04 0.04 0.03 0.03 0.02 0.03 0.05 0.06 0.04 0.05 0.06 0.05 0.05
0.01 0.01 0.01 0.01 0.01 0.01 0.01 0.01 0.00 0.00 0.00 0.00 0.00 0.00 0.00 0.00 0.00 0.01 0.01 0.02 0.02 0.02 0.01 0.01 0.01 0.02 0.02 0.02 0.02 0.03 0.05 0.06 0.06 0.05 0.04 0.03 0.03 0.03 0.04 0.03 0.02 0.02 0.04 0.06 0.06 0.05 0.06 0.06 0.05
0.01 0.02 0.01 0.01 0.01 0.02 0.01 0.01 0.00 0.00 0.00 0.00 0.00 0.00 0.00 0.00 0.00 0.01 0.00 0.01 0.02 0.02 0.02 0.01 0.01 0.01 0.01 0.02 0.02 0.03 0.04 0.07 0.08 0.08 0.06 0.04 0.04 0.04 0.04 0.04 0.04 0.03 0.03 0.04 0.06 0.06 0.06 0.06 0.06
0.01 0.01 0.01 0.02 0.01 0.02 0.02 0.01 0.00 0.00 0.00 0.00 0.00 0.00 0.00 0.00 0.00 0.00 0.00 0.00 0.01 0.01 0.01 0.01 0.01 0.01 0.01 0.01 0.01 0.01 0.02 0.04 0.06 0.08 0.09 0.07 0.04 0.04 0.05 0.04 0.04 0.05 0.04 0.04 0.05 0.05 0.06 0.06 0.07
0.01 0.01 0.01 0.02 0.01 0.01 0.02 0.01 0.00 0.00 0.00 0.00 0.00 0.00 0.00 0.00 0.00 0.00 0.00 0.00 0.00 0.01 0.01 0.01 0.00 0.00 0.00 0.00 0.00 0.00 0.01 0.01 0.02 0.03 0.05 0.06 0.06 0.05 0.05 0.03 0.03 0.03 0.03 0.03 0.04 0.05 0.06 0.05 0.07
0.01 0.01 0.02 0.02 0.01 0.01 0.01 0.01 0.00 0.00 0.00 0.00 0.00 0.00 0.00 0.00 0.00 0.00 0.00 0.00 0.00 0.00 0.01 0.01 0.01 0.00 0.00 0.00 0.00 0.00 0.01 0.01 0.01 0.02 0.02 0.03 0.04 0.05 0.06 0.05 0.03 0.03 0.02 0.02 0.03 0.05 0.06 0.06 0.05
0.01 0.02 0.02 0.02 0.02 0.01 0.01 0.01 0.00 0.00 0.00 0.00 0.00 0.00 0.00 0.00 0.00 0.00 0.00 0.00 0.00 0.00 0.00 0.00 0.00 0.00 0.00 0.00 0.00 0.00 0.01 0.01 0.01 0.01 0.01 0.01 0.02 0.03 0.05 0.06 0.05 0.04 0.04 0.03 0.01 0.03 0.05 0.06 0.06
0.02 0.01 0.02 0.02 0.02 0.02 0.01 0.01 0.01 0.00 0.00 0.00 0.00 0.00 0.00 0.00 0.00 0.00 0.00 0.00 0.00 0.00 0.00 0.00 0.00 0.00 0.00 0.00 0.00 0.00 0.01 0.01 0.01 0.01 0.01 0.01 0.01 0.02 0.03 0.04 0.04 0.04 0.04 0.05 0.04 0.03 0.03 0.06 0.07
0.01 0.01 0.02 0.02 0.03 0.02 0.01 0.01 0.01 0.00 0.00 0.00 0.00 0.00 0.00 0.00 0.00 0.00 0.00 0.00 0.00 0.00 0.00 0.00 0.00 0.00 0.00 0.00 0.00 0.00 0.00 0.01 0.01 0.01 0.01 0.01 0.01 0.01 0.01 0.02 0.03 0.04 0.04 0.03 0.04 0.04 0.04 0.06 0.07
0.01 0.02 0.02 0.02 0.02 0.02 0.01 0.01 0.01 0.00 0.00 0.00 0.00 0.00 0.00 0.00 0.00 0.00 0.00 0.00 0.00 0.00 0.00 0.00 0.00 0.00 0.00 0.00 0.00 0.00 0.00 0.01 0.01 0.01 0.01 0.01 0.01 0.01 0.01 0.02 0.02 0.04 0.06 0.06 0.04 0.04 0.04 0.06 0.09
0.02 0.03 0.03 0.03 0.03 0.02 0.01 0.01 0.02 0.01 0.00 0.00 0.00 0.00 0.00 0.00 0.00 0.00 0.00 0.00 0.00 0.00 0.00 0.00 0.00 0.00 0.00 0.00 0.00 0.00 0.00 0.00 0.01 0.02 0.02 0.02 0.01 0.01 0.01 0.01 0.02 0.02 0.04 0.06 0.07 0.06 0.05 0.04 0.06
0.02 0.02 0.03 0.03 0.02 0.02 0.01 0.02 0.01 0.01 0.00 0.00 0.00 0.00 0.00 0.00 0.00 0.00 0.00 0.00 0.00 0.00 0.00 0.00 0.00 0.00 0.00 0.00 0.00 0.00 0.00 0.00 0.01 0.03 0.03 0.02 0.02 0.02 0.01 0.02 0.02 0.02 0.02 0.04 0.06 0.07 0.06 0.05 0.05
0.01 0.02 0.02 0.02 0.01 0.01 0.01 0.01 0.00 0.00 0.00 0.00 0.00 0.00 0.00 0.00 0.00 0.00 0.00 0.00 0.00 0.00 0.00 0.00 0.00 0.00 0.00 0.00 0.01 0.01 0.01 0.01 0.01 0.03 0.04 0.03 0.03 0.02 0.01 0.01 0.02 0.02 0.02 0.02 0.03 0.05 0.05 0.05 0.05
0.00 0.01 0.01 0.02 0.02 0.02 0.02 0.01 0.01 0.01 0.00 0.00 0.00 0.00 0.00 0.00 0.00 0.00 0.00 0.00 0.00 0.00 0.01 0.00 0.00 0.00 0.01 0.01 0.01 0.01 0.01 0.01 0.01 0.02 0.03 0.04 0.04 0.03 0.02 0.01 0.01 0.01 0.01 0.02 0.02 0.03 0.04 0.04 0.04
0.01 0.01 0.01 0.02 0.01 0.02 0.02 0.03 0.02 0.02 0.01 0.01 0.01 0.01 0.01 0.00 0.00 0.00 0.00 0.00 0.00 0.00 0.00 0.00 0.00 0.01 0.01 0.01 0.01 0.01 0.01 0.01 0.01 0.02 0.03 0.04 0.04 0.04 0.04 0.02 0.01 0.01 0.01 0.01 0.02 0.03 0.03 0.04 0.04
0.00 0.01 0.01 0.03 0.02 0.01 0.02 0.02 0.01 0.01 0.01 0.01 0.01 0.01 0.01 0.01 0.01 0.01 0.01 0.01 0.01 0.01 0.00 0.00 0.01 0.01 0.01 0.01 0.02 0.02 0.02 0.01 0.01 0.02 0.02 0.03 0.04 0.04 0.04 0.04 0.02 0.01 0.00 0.01 0.02 0.03 0.03 0.03 0.04
MSLP
1010.59 1010.74 1010.99 1011.26 1011.43 1011.43 1011.18 1010.69 1010.00 1009.24 1008.57 1008.14 1008.07 1008.39 1009.09 1010.03 1011.07 1012.02 1012.72 1013.12 1013.19 1013.01 1012.68 1012.33 1012.07 1011.96 1012.00 1012.15 1012.33 1012.49 1012.56 1012.54 1012.45 1012.35 1012.27 1012.26 1012.31 1012.41 1012.51 1012.57 1012.56 1012.48 1012.34 1012.20 1012.10 1012.07 1012.13 1012.27 1012.45
1010.92 1011.11 1011.34 1011.53 1011.56 1011.38 1010.94 1010.28 1009.47 1008.67 1008.04 1007.72 1007.80 1008.31 1009.18 1010.26 1011.39 1012.39 1013.10 1013.48 1013.52 1013.31 1012.97 1012.62 1012.37 1012.27 1012.31 1012.44 1012.61 1012.73 1012.77 1012.72 1012.61 1012.49 1012.40 1012.38 1012.42 1012.51 1012.59 1012.62 1012.59 1012.48 1012.34 1012.19 1012.10 1012.08 1012.16 1012.32 1012.52
1011.22 1011.41 1011.60 1011.69 1011.59 1011.25 1010.66 1009.88 1009.02 1008.23 1007.67 1007.47 1007.71 1008.36 1009.35 1010.52 1011.69 1012.68 1013.38 1013.72 1013.75 1013.53 1013.20 1012.88 1012.66 1012.58 1012.64 1012.77 1012.91 1013.00 1013.01 1012.93 1012.80 1012.66 1012.55 1012.50 1012.51 1012.56 1012.60 1012.60 1012.54 1012.41 1012.26 1012.13 1012.05 1012.06 1012.17 1012.36 1012.59
1011.46 1011.64 1011.77 1011.76 1011.54 1011.09 1010.41 1009.58 1008.73 1008.00 1007.55 1007.48 1007.83 1008.58 1009.62 1010.80 1011.94 1012.88 1013.52 1013.83 1013.84 1013.65 1013.36 1013.10 1012.94 1012.90 1012.98 1013.11 1013.24 1013.30 1013.28 1013.17 1013.00 1012.83 1012.69 1012.61 1012.58 1012.57 1012.56 1012.51 1012.41 1012.27 1012.12 1012.00 1011.96 1012.01 1012.16 1012.38 1012.64
1011.65 1011.79 1011.86 1011.77 1011.47 1010.96 1010.26 1009.45 1008.66 1008.04 1007.71 1007.74 1008.17 1008.95 1009.97 1011.09 1012.13 1012.97 1013.54 1013.80 1013.82 1013.67 1013.46 1013.28 1013.19 1013.22 1013.33 1013.47 1013.58 1013.61 1013.55 1013.40 1013.21 1013.01 1012.83 1012.70 1012.62 1012.56 1012.49 1012.38 1012.25 1012.09 1011.95 1011.85 1011.84 1011.93 1012.11 1012.37 1012.65
1011.77 1011.87 1011.88 1011.73 1011.40 1010.89 1010.22 1009.50 1008.83 1008.34 1008.12 1008.24 1008.70 1009.44 1010.36 1011.34 1012.25 1012.96 1013.43 1013.66 1013.70 1013.62 1013.51 1013.44 1013.45 1013.54 1013.69 1013.83 1013.92 1013.92 1013.83 1013.65 1013.43 1013.20 1013.00 1012.83 1012.69 1012.56 1012.42 1012.27 1012.09 1011.91 1011.77 1011.69 1011.71 1011.82 1012.03 1012.30 1012.59
1011.83 1011.87 1011.83 1011.66 1011.34 1010.87 1010.30 1009.71 1009.18 1008.82 1008.71 1008.87 1009.30 1009.96 1010.74 1011.55 1012.28 1012.85 1013.24 1013.46 1013.54 1013.55 1013.56 1013.61 1013.72 1013.87 1014.04 1014.18 1014.25 1014.22 1014.10 1013.91 1013.68 1013.44 1013.21 1013.00 1012.82 1012.63 1012.43 1012.22 1011.99 1011.79 1011.63 1011.56 1011.58 1011.70 1011.91 1012.17 1012.45
1011.81 1011.80 1011.73 1011.55 1011.27 1010.88 1010.44 1009.99 1009.61 1009.38 1009.35 1009.52 1009.90 1010.42 1011.03 1011.65 1012.21 1012.67 1013.00 1013.23 1013.38 1013.51 1013.64 1013.81 1014.01 1014.22 1014.40 1014.52 1014.56 1014.51 1014.38 1014.18 1013.95 1013.72 1013.49 1013.27 1013.04 1012.80 1012.54 1012.27 1011.99 1011.75 1011.57 1011.47 1011.48 1011.58 1011.76 1011.99 1012.23
1011.72 1011.67 1011.57 1011.41 1011.18 1010.90 1010.58 1010.28 1010.04 1009.91 1009.92 1010.08 1010.37 1010.75 1011.19 1011.64 1012.06 1012.43 1012.74 1013.01 1013.26 1013.51 1013.78 1014.05 1014.32 1014.56 1014.74 1014.83 1014.84 1014.77 1014.63 1014.45 1014.25 1014.05 1013.84 1013.62 1013.38 1013.10 1012.78 1012.44 1012.11 1011.82 1011.59 1011.46 1011.43 1011.49 1011.62 1011.78 1011.96
1011.60 1011.51 1011.40 1011.26 1011.09 1010.89 1010.69 1010.51 1010.38 1010.32 1010.35 1010.46 1010.66 1010.91 1011.20 1011.51 1011.82 1012.15 1012.48 1012.83 1013.20 1013.58 1013.96 1014.33 1014.64 1014.89 1015.04 1015.10 1015.07 1014.98 1014.85 1014.70 1014.55 1014.40 1014.24 1014.04 1013.79 1013.49 1013.13 1012.74 1012.35 1012.00 1011.73 1011.55 1011.46 1011.46 1011.52 1011.61 1011.70
1011.48 1011.36 1011.25 1011.12 1011.00 1010.88 1010.76 1010.67 1010.60 1010.58 1010.59 1010.65 1010.74 1010.88 1011.05 1011.27 1011.53 1011.86 1012.25 1012.70 1013.18 1013.69 1014.17 1014.60 1014.94 1015.17 1015.28 1015.29 1015.23 1015.12 1015.01 1014.91 1014.82 1014.74 1014.63 1014.48 1014.25 1013.94 1013.55 1013.12 1012.68 1012.29 1011.96 1011.73 1011.59 1011.52 1011.50 1011.50 1011.50
1011.42 1011.29 1011.16 1011.05 1010.95 1010.87 1010.80 1010.75 1010.70 1010.68 1010.66 1010.65 1010.66 1010.71 1010.80 1010.97 1011.23 1011.59 1012.06 1012.61 1013.21 1013.82 1014.38 1014.84 1015.18 1015.37 1015.43 1015.39 1015.29 1015.18 1015.09 1015.04 1015.02 1015.01 1014.98 1014.88 1014.68 1014.38 1013.99 1013.54 1013.07 1012.65 1012.29 1012.01 1011.82 1011.69 1011.59 1011.50 1011.42
1011.50 1011.34 1011.20 1011.08 1010.98 1010.91 1010.85 1010.79 1010.74 1010.68 1010.62 1010.55 1010.49 1010.47 1010.52 1010.67 1010.95 1011.37 1011.92 1012.56 1013.25 1013.93 1014.53 1015.01 1015.32 1015.47 1015.48 1015.39 1015.27 1015.15 1015.08 1015.08 1015.13 1015.19 1015.22 1015.17 1015.02 1014.75 1014.37 1013.93 1013.47 1013.03 1012.66 1012.36 1012.14 1011.96 1011.79 1011.63 1011.46
1011.73 1011.56 1011.40 1011.26 1011.13 1011.03 1010.94 1010.86 1010.77 1010.66 1010.54 1010.42 1010.32 1010.26 1010.30 1010.46 1010.76 1011.23 1011.83 1012.54 1013.28 1013.99 1014.61 1015.07 1015.35 1015.46 1015.43 1015.31 1015.16 1015.04 1014.99 1015.03 1015.12 1015.23 1015.32 1015.32 1015.21 1014.98 1014.64 1014.23 1013.80 1013.39 1013.03 1012.74 1012.50 1012.30 1012.09 1011.87 1011.62
1012.12 1011.94 1011.75 1011.57 1011.40 1011.26 1011.12 1010.98 1010.84 1010.68 1010.52 1010.36 1010.23 1010.16 1010.19 1010.36 1010.69 1011.18 1011.81 1012.53 1013.28 1013.98 1014.58 1015.02 1015.27 1015.34 1015.29 1015.15 1015.00 1014.89 1014.85 1014.90 1015.02 1015.15 1015.26 1015.29 1015.22 1015.03 1014.74 1014.39 1014.01 1013.66 1013.35 1013.09 1012.86 1012.65 1012.42 1012.15 1011.85
1012.64 1012.43 1012.21 1011.99 1011.77 1011.57 1011.37 1011.18 1010.98 1010.78 1010.59 1010.41 1010.27 1010.20 1010.24 1010.42 1010.74 1011.23 1011.84 1012.53 1013.24 1013.90 1014.45 1014.85 1015.08 1015.14 1015.09 1014.96 1014.82 1014.72 1014.69 1014.74 1014.84 1014.97 1015.07 1015.10 1015.05 1014.89 1014.66 1014.38 1014.08 1013.80 1013.56 1013.35 1013.15 1012.95 1012.72 1012.44 1012.10
1013.20 1012.98 1012.73 1012.47 1012.20 1011.93 1011.68 1011.43 1011.19 1010.96 1010.75 1010.57 1010.44 1010.39 1010.44 1010.61 1010.92 1011.36 1011.91 1012.52 1013.15 1013.74 1014.23 1014.59 1014.81 1014.88 1014.85 1014.76 1014.65 1014.57 1014.54 1014.56 1014.63 1014.71 1014.77 1014.78 1014.72 1014.59 1014.41 1014.20 1013.98 1013.79 1013.62 1013.47 1013.33 1013.15 1012.93 1012.65 1012.30
1013.75 1013.52 1013.25 1012.95 1012.63 1012.31 1012.00 1011.70 1011.43 1011.18 1010.97 1010.81 1010.70 1010.67 1010.73 1010.90 1011.17 1011.54 1012.00 1012.50 1013.02 1013.51 1013.93 1014.26 1014.47 1014.58 1014.61 1014.58 1014.52 1014.46 1014.43 1014.42 1014.42 1014.43 1014.42 1014.37 1014.28 1014.16 1014.01 1013.87 1013.73 1013.62 1013.53 1013.45 1013.35 1013.22 1013.02 1012.75 1012.41
1014.22 1014.00 1013.72 1013.39 1013.04 1012.67 1012.31 1011.97 1011.66 1011.39 1011.19 1011.05 1010.98 1010.98 1011.06 1011.21 1011.44 1011.74 1012.08 1012.46 1012.86 1013.24 1013.59 1013.88 1014.11 1014.27 1014.37 1014.41 1014.42 1014.40 1014.36 1014.31 1014.24 1014.16 1014.05 1013.93 1013.80 1013.66 1013.53 1013.43 1013.36 1013.32 1013.30 1013.28 1013.23 1013.13 1012.97 1012.73 1012.42
1014.59 1014.40 1014.13 1013.80 1013.42 1013.00 1012.59 1012.19 1011.84 1011.55 1011.34 1011.22 1011.18 1011.22 1011.32 1011.47 1011.67 1011.89 1012.13 1012.39 1012.66 1012.94 1013.21 1013.48 1013.73 1013.94 1014.13 1014.26 1014.34 1014.37 1014.33 1014.24 1014.10 1013.93 1013.73 1013.52 1013.32 1013.16 1013.03 1012.96 1012.93 1012.94 1012.97 1012.99 1012.98 1012.92 1012.80 1012.60 1012.34
1014.91 1014.75 1014.51 1014.18 1013.78 1013.32 1012.83 1012.37 1011.95 1011.61 1011.38 1011.26 1011.25 1011.32 1011.45 1011.61 1011.79 1011.96 1012.12 1012.28 1012.44 1012.62 1012.83 1013.07 1013.34 1013.61 1013.87 1014.09 1014.25 1014.33 1014.31 1014.20 1014.00 1013.74 1013.46 1013.17 1012.91 1012.70 1012.57 1012.50 1012.50 1012.54 1012.59 1012.64 1012.66 1012.63 1012.54 1012.39 1012.19
1015.22 1015.13 1014.93 1014.61 1014.17 1013.65 1013.08 1012.51 1011.99 1011.58 1011.29 1011.14 1011.13 1011.23 1011.39 1011.58 1011.76 1011.92 1012.03 1012.12 1012.20 1012.31 1012.46 1012.67 1012.94 1013.26 1013.59 1013.89 1014.12 1014.26 1014.26 1014.15 1013.92 1013.61 1013.25 1012.90 1012.59 1012.34 1012.18 1012.10 1012.10 1012.14 1012.21 1012.26 1012.30 1012.29 1012.23 1012.13 1012.00
1015.61 1015.59 1015.44 1015.12 1014.65 1014.05 1013.37 1012.66 1012.00 1011.46 1011.07 1010.87 1010.84 1010.94 1011.14 1011.37 1011.58 1011.75 1011.86 1011.91 1011.95 1012.00 1012.10 1012.28 1012.55 1012.89 1013.26 1013.62 1013.92 1014.11 1014.16 1014.06 1013.82 1013.49 1013.10 1012.71 1012.36 1012.08 1011.89 1011.79 1011.77 1011.79 1011.84 1011.89 1011.92 1011.92 1011.89 1011.84 1011.77
1016.12 1016.18 1016.07 1015.75 1015.24 1014.54 1013.71 1012.84 1012.01 1011.30 1010.78 1010.48 1010.39 1010.49 1010.72 1011.00 1011.27 1011.48 1011.61 1011.67 1011.69 1011.71 1011.77 1011.92 1012.17 1012.51 1012.90 1013.29 1013.63 1013.87 1013.96 1013.90 1013.69 1013.36 1012.97 1012.57 1012.19 1011.89 1011.68 1011.55 1011.50 1011.49 1011.50 1011.52 1011.53 1011.53 1011.51 1011.50 1011.48
1016.75 1016.88 1016.80 1016.48 1015.90 1015.10 1014.12 1013.06 1012.03 1011.14 1010.45 1010.03 1009.87 1009.95 1010.19 1010.52 1010.86 1011.14 1011.32 1011.41 1011.44 1011.45 1011.48 1011.59 1011.81 1012.12 1012.50 1012.90 1013.26 1013.53 1013.67 1013.65 1013.47 1013.18 1012.82 1012.43 1012.06 1011.75 1011.51 1011.35 1011.26 1011.21 1011.17 1011.15 1011.12 1011.10 1011.09 1011.08 1011.10
1017.46 1017.63 1017.58 1017.24 1016.60 1015.68 1014.56 1013.32 1012.09 1011.01 1010.15 1009.60 1009.35 1009.38 1009.63 1010.00 1010.41 1010.76 1011.02 1011.16 1011.22 1011.22 1011.24 1011.31 1011.48 1011.74 1012.09 1012.46 1012.82 1013.11 1013.28 1013.30 1013.18 1012.93 1012.61 1012.25 1011.90 1011.59 1011.34 1011.15 1011.01 1010.91 1010.82 1010.74 1010.67 1010.61 1010.58 1010.58 1010.61
1018.14 1018.34 1018.29 1017.93 1017.23 1016.22 1014.96 1013.58 1012.18 1010.93 1009.92 1009.23 1008.90 1008.88 1009.12 1009.52 1009.98 1010.40 1010.73 1010.94 1011.03 1011.05 1011.05 1011.09 1011.20 1011.40 1011.69 1012.02 1012.35 1012.63 1012.81 1012.86 1012.78 1012.59 1012.31 1011.99 1011.67 1011.37 1011.11 1010.89 1010.71 1010.55 1010.40 1010.27 1010.15 1010.05 1009.98 1009.96 1009.99
1018.70 1018.89 1018.83 1018.44 1017.69 1016.61 1015.27 1013.78 1012.27 1010.90 1009.78 1008.99 1008.57 1008.51 1008.73 1009.14 1009.63 1010.11 1010.49 1010.75 1010.89 1010.93 1010.92 1010.92 1010.98 1011.12 1011.34 1011.60 1011.88 1012.12 1012.29 1012.35 1012.30 1012.14 1011.91 1011.63 1011.33 1011.04 1010.77 1010.53 1010.31 1010.10 1009.90 1009.71 1009.54 1009.39 1009.29 1009.24 1009.25
1019.04 1019.19 1019.08 1018.66 1017.89 1016.78 1015.41 1013.89 1012.34 1010.91 1009.73 1008.89 1008.42 1008.30 1008.49 1008.89 1009.39 1009.90 1010.32 1010.62 1010.79 1010.85 1010.84 1010.82 1010.84 1010.91 1011.05 1011.23 1011.44 1011.62 1011.75 1011.80 1011.74 1011.60 1011.39 1011.13 1010.85 1010.57 1010.30 1010.04 1009.79 1009.54 1009.30 1009.06 1008.85 1008.66 1008.52 1008.44 1008.41
1019.12 1019.19 1019.02 1018.57 1017.78 1016.69 1015.35 1013.86 1012.34 1010.94 1009.77 1008.91 1008.42 1008.27 1008.42 1008.79 1009.27 1009.77 1010.20 1010.52 1010.72 1010.80 1010.80 1010.77 1010.75 1010.77 1010.83 1010.94 1011.06 1011.17 1011.23 1011.23 1011.14 1010.99 1010.78 1010.52 1010.24 1009.96 1009.68 1009.40 1009.13 1008.86 1008.58 1008.32 1008.07 1007.85 1007.68 1007.58 1007.53
Thickness
5696 5701 5705 5700 5685 5678 5683 5704 5720 5722 5724 5727 5729 5727 5720 5712 5707 5695 5704 5713 5713 5713 5712 5712 5712 5712 5713 5713 5713 5713 5713 5713 5713 5713 5714 5714 5714 5714 5714 5714 5714 5714 5714 5715 5714 5714 5714 5714 5713
5692 5698 5695 5686 5673 5669 5683 5703 5708 5712 5716 5722 5722 5720 5714 5704 5705 5701 5702 5707 5708 5708 5707 5706 5706 5706 5707 5707 5707 5707 5707 5707 5708 5708 5709 5709 5709 5709 5709 5709 5709 5709 5710 5710 5710 5710 5709 5709 5709
5688 5692 5682 5675 5670 5672 5685 5701 5703 5707 5712 5712 5708 5709 5704 5696 5698 5696 5697 5702 5703 5702 5701 5700 5700 5700 5700 5701 5701 5701 5701 5701 5702 5702 5703 5704 5704 5704 5705 5705 5705 5705 5705 5705 5705 5705 5705 5704 5704
5683 5678 5675 5667 5667 5682 5689 5696 5699 5698 5701 5703 5699 5693 5693 5693 5693 5692 5693 5695 5695 5695 5694 5693 5693 5693 5694 5694 5695 5695 5695 5695 5695 5696 5697 5698 5699 5699 5699 5700 5700 5700 5700 5700 5700 5700 5700 5700 5700
5675 5668 5659 5658 5667 5682 5690 5695 5695 5690 5689 5692 5691 5682 5678 5683 5686 5686 5686 5687 5687 5687 5687 5686 5686 5686 5687 5687 5688 5688 5689 5689 5689 5690 5691 5692 5693 5694 5694 5695 5695 5695 5695 5695 5695 5695 5695 5695 5695
5661 5661 5652 5652 5665 5679 5686 5690 5688 5683 5682 5683 5682 5676 5669 5675 5676 5677 5679 5679 5680 5679 5679 5679 5679 5679 5680 5680 5681 5682 5682 5683 5683 5683 5684 5686 5687 5688 5689 5689 5690 5690 5691 5691 5691 5690 5690 5690 5690
5651 5649 5648 5656 5662 5669 5676 5682 5678 5674 5673 5674 5678 5668 5663 5666 5668 5670 5672 5672 5672 5672 5672 5671 5671 5672 5672 5673 5674 5674 5675 5676 5677 5677 5678 5679 5680 5682 5683 5683 5684 5685 5685 5685 5685 5685 5685 5685 5684
5649 5644 5645 5651 5655 5659 5668 5671 5670 5665 5663 5669 5671 5661 5655 5658 5662 5663 5663 5663 5663 5663 5663 5663 5664 5664 5664 5665 5666 5667 5668 5670 5671 5671 5671 5673 5674 5675 5676 5677 5678 5679 5679 5679 5680 5680 5680 5679 5678
5643 5630 5633 5644 5649 5652 5658 5657 5658 5660 5656 5657 5656 5654 5654 5655 5655 5653 5653 5653 5653 5654 5654 5655 5656 5656 5657 5658 5659 5660 5662 5663 5663 5664 5665 5666 5668 5669 5670 5671 5672 5672 5673 5673 5674 5674 5673 5673 5672
5628 5621 5632 5642 5645 5645 5647 5647 5646 5646 5644 5643 5643 5645 5646 5646 5645 5643 5643 5643 5643 5644 5645 5647 5647 5648 5649 5650 5651 5653 5654 5656 5657 5657 5658 5659 5661 5662 5663 5664 5665 5666 5666 5667 5667 5667 5667 5667 5666
5624 5622 5630 5634 5637 5638 5636 5637 5639 5635 5632 5636 5634 5634 5635 5635 5634 5635 5635 5636 5636 5637 5637 5638 5639 5640 5641 5642 5644 5645 5647 5648 5649 5650 5651 5653 5654 5655 5656 5658 5658 5659 5659 5660 5660 5660 5661 5661 5660
5618 5621 5624 5625 5626 5626 5626 5627 5626 5627 5627 5633 5633 5630 5628 5627 5627 5627 5628 5629 5629 5629 5629 5630 5631 5632 5633 5634 5636 5637 5638 5640 5641 5642 5643 5645 5647 5648 5649 5650 5651 5652 5652 5653 5653 5654 5655 5654 5654
5611 5613 5616 5617 5617 5617 5617 5616 5616 5618 5623 5625 5626 5623 5622 5621 5621 5622 5622 5623 5622 5621 5621 5622 5623 5623 5625 5626 5627 5629 5630 5631 5633 5634 5635 5637 5638 5640 5641 5643 5644 5644 5645 5646 5646 5647 5647 5648 5648
5606 5606 5607 5608 5609 5609 5607 5608 5608 5612 5616 5617 5617 5615 5616 5615 5615 5615 5615 5614 5614 5614 5613 5614 5615 5616 5616 5618 5619 5620 5621 5623 5624 5625 5627 5628 5630 5631 5633 5635 5636 5637 5638 5638 5639 5640 5640 5640 5640
5597 5593 5595 5599 5601 5602 5598 5597 5603 5607 5608 5608 5609 5609 5610 5610 5610 5608 5608 5607 5607 5606 5606 5606 5607 5608 5608 5609 5611 5612 5613 5614 5615 5617 5618 5620 5621 5623 5625 5626 5628 5629 5630 5631 5632 5632 5632 5633 5633
5584 5583 5583 5594 5596 5594 5586 5586 5599 5603 5602 5601 5602 5603 5603 5604 5604 5603 5602 5600 5600 5599 5598 5598 5599 5599 5600 5601 5602 5604 5605 5606 5607 5608 5610 5611 5613 5615 5616 5618 5619 5621 5622 5623 5624 5624 5624 5624 5624
5573 5572 5578 5583 5590 5588 5581 5582 5591 5595 5595 5594 5596 5597 5597 5596 5596 5595 5595 5593 5592 5592 5591 5590 5591 5591 5591 5592 5594 5596 5597 5598 5599 5600 5601 5603 5604 5606 5607 5609 5611 5612 5613 5614 5615 5615 5615 5615 5615
5564 5568 5575 5574 5580 5579 5574 5578 5584 5587 5588 5587 5588 5589 5589 5587 5587 5587 5587 5586 5585 5584 5583 5582 5582 5582 5583 5584 5585 5586 5588 5589 5591 5592 5594 5595 5596 5597 5599 5600 5601 5602 5603 5604 5605 5606 5606 5606 5606
5561 5560 5560 5564 5568 5565 5565 5570 5577 5580 5579 5579 5579 5579 5578 5579 5579 5579 5578 5577 5576 5574 5573 5574 5574 5574 5574 5575 5575 5577 5578 5580 5582 5584 5586 5587 5588 5589 5589 5590 5591 5592 5593 5594 5595 5596 5596 5595 5595
5550 5547 5549 5554 5559 5557 5557 5562 5570 5572 5571 5571 5571 5570 5569 5569 5569 5569 5568 5567 5566 5565 5564 5564 5565 5565 5566 5566 5567 5568 5569 5571 5573 5574 5576 5578 5579 5580 5581 5581 5581 5582 5583 5584 5585 5585 5585 5585 5584
5540 5538 5540 5540 5543 5548 5544 5550 5561 5565 5565 5564 5563 5562 5561 5560 5559 5559 5558 5557 5556 5555 5555 5556 5556 5557 5557 5558 5558 5559 5559 5561 5562 5564 5567 5568 5570 5571 5572 5572 5572 5573 5573 5573 5574 5574 5574 5573 5573
5524 5530 5530 5529 5521 5524 5535 5524 5550 5553 5554 5554 5552 5550 5550 5550 5550 5549 5548 5547 5546 5546 5546 5546 5547 5547 5548 5549 5549 5549 5550 5551 5553 5555 5557 5559 5561 5561 5562 5562 5562 5562 5563 5563 5563 5563 5563 5563 5562
5515 5519 5518 5516 5511 5510 5521 5512 5533 5544 5542 5542 5542 5541 5540 5540 5540 5539 5538 5538 5537 5536 5536 5537 5538 5538 5539 5539 5540 5540 5540 5541 5543 5545 5547 5549 5551 5551 5552 5552 5552 5552 5552 5553 5552 5552 5553 5553 5552
5508 5507 5507 5507 5500 5493 5513 5512 5523 5531 5536 5533 5532 5531 5530 5530 5529 5529 5528 5527 5526 5526 5525 5526 5528 5528 5529 5529 5530 5530 5531 5531 5532 5534 5535 5537 5539 5540 5541 5542 5542 5542 5542 5542 5542 5542 5542 5542 5541
5498 5488 5485 5489 5485 5497 5519 5513 5519 5527 5529 5526 5522 5520 5519 5519 5518 5518 5517 5516 5516 5515 5515 5516 5517 5519 5519 5519 5520 5520 5521 5521 5522 5524 5525 5526 5528 5530 5531 5532 5531 5531 5531 5532 5532 5531 5531 5531 5531
5487 5485 5476 5477 5489 5498 5503 5504 5515 5520 5518 5517 5516 5512 5511 5508 5508 5508 5507 5506 5505 5506 5506 5506 5507 5508 5509 5510 5510 5511 5511 5512 5513 5514 5515 5516 5517 5519 5520 5520 5520 5520 5520 5520 5520 5520 5520 5520 5520
5482 5478 5482 5471 5470 5474 5495 5510 5509 5513 5509 5507 5505 5502 5499 5498 5498 5497 5497 5497 5496 5496 5496 5496 5497 5498 5499 5500 5501 5502 5502 5503 5503 5504 5504 5505 5506 5507 5509 5509 5508 5508 5508 5508 5508 5508 5508 5509 5509
5475 5475 5466 5462 5464 5476 5498 5503 5497 5498 5498 5497 5493 5490 5489 5488 5489 5488 5487 5487 5486 5486 5487 5487 5488 5489 5489 5490 5491 5493 5493 5493 5494 5494 5494 5494 5495 5496 5496 5497 5497 5497 5497 5497 5496 5496 5497 5496 5496
5464 5463 5461 5461 5465 5465 5475 5487 5498 5492 5491 5487 5484 5482 5479 5478 5478 5478 5477 5477 5477 5477 5477 5478 5478 5479 5480 5480 5481 5482 5483 5484 5484 5484 5484 5484 5484 5484 5485 5486 5486 5486 5485 5485 5484 5484 5485 5484 5484
5456 5457 5453 5447 5452 5458 5458 5472 5489 5485 5482 5480 5475 5473 5471 5470 5469 5469 5469 5468 5468 5468 5468 5468 5469 5470 5470 5471 5472 5472 5474 5474 5473 5473 5474 5473 5473 5473 5474 5474 5474 5474 5474 5473 5472 5472 5472 5472 5472